Location: Veytaux
(46.4185°N, 6.9320°E)
Time: 08:50:26
(UTC+00:00)

Cosmos 1943 Rocket - Pass Details

Date: 27 May 2022
Orbit: 810 x 845 km, 71.0° (Epoch: 01 July)

Event Time Altitude Azimuth Distance (km) Brightness Sun altitude
Rises 02:50:46 0° 317° (NW) 3,413 5.4 -8.5°
Reaches altitude 10° 02:54:22 10° 294° (WNW) 2,472 4.4 -8.0°
Maximum altitude 02:57:15 14° 263° (W) 2,171 3.9 -7.6°
Drops below altitude 10° 03:00:08 10° 232° (SW) 2,460 3.9 -7.3°
Enters shadow 03:00:41 - 227° (SW) 2,572 4.0 -7.2°
